Regional Weather Roundup
Issued by NWS

Home | Current Version | Previous Version | Graphics & Text | Print | Product List | Glossary On
Versions: 1 2 3 4 5 6 7 8 9 10 11 12 13 14 15 16 17 18 19 20 21 22 23 24 25 26 27 28 29 30 31 32 33 34 35 36 37 38 39 40 41 42 43 44 45 46 47 48 49 50
000
ASUS45 KBOI 230410
RWRID

IDAHO REGIONAL WEATHER ROUNDUP
NATIONAL WEATHER SERVICE BOISE ID
900 PM MST THU FEB 22 2018

NOTE: "FAIR" INDICATES FEW OR NO CLOUDS BELOW 12000 FEET
WITH NO SIGNIFICANT WEATHER AND/OR OBSTRUCTIONS TO VISIBILITY

IDZ012-014-230500-
SOUTHWEST IDAHO


CITY           SKY/WX    TMP DP  RH WIND       PRES   REMARKS
BOISE          PTCLDY    19  12  74 CALM      30.07R
CALDWELL       PTCLDY    27  19  72 W7        30.11R WCI  19
MOUNTAIN HOME  MOCLDY    25  22  90 N7        30.06R WCI  17
$$

IDZ016-017-230500-
SOUTHCENTRAL IDAHO


CITY           SKY/WX    TMP DP  RH WIND       PRES   REMARKS
BURLEY         MOCLDY    18  15  88 CALM      29.99R
JEROME         PTCLDY    21  14  74 SW7       30.01R WCI  12
TWIN FALLS     PTCLDY    14  10  84 S7        30.01R WCI   4
$$

IDZ019>023-230500-
SOUTHEAST IDAHO


CITY           SKY/WX    TMP DP  RH WIND       PRES   REMARKS
IDAHO FALLS    CLOUDY    25  15  66 SW12      29.96R WCI  14
POCATELLO      LGT SNOW  24  20  84 SW14      29.99R FOG     WCI  12
REXBURG        CLOUDY    25  14  63 S9        29.94R WCI  15
$$

IDZ006-010-011-018-031-032-230500-
CENTRAL IDAHO MOUNTAINS


CITY           SKY/WX    TMP DP  RH WIND       PRES   REMARKS
MCCALL         CLOUDY    13   9  84 CALM      29.96R
HAILEY         PTCLDY    14  12  92 CALM      29.93R
STANLEY          N/A      2  -2  83 S3        29.87R
SALMON         CLOUDY    26  21  81 W5        29.95R WCI  20
CHALLIS        CLOUDY    22  18  85 NW6       29.89R WCI  14
$$

IDZ002-004-006-007-026-230500-
NORTHERN IDAHO


CITY           SKY/WX    TMP DP  RH WIND       PRES   REMARKS
LEWISTON       CLOUDY    27  16  63 W6        30.28R WCI  20
LOWELL           N/A     26  21  81 CALM      30.26R
COEUR D`ALENE  CLOUDY    25  12  58 N12       30.18S WCI  14
MULLAN PASS    CLEAR      6   3  87 N6        29.94R WCI  -4
$$



USA.gov is the U.S. government's official web portal to all federal, state and local government web resources and services.